Regional Weather Roundup
Issued by NWS

Home | Current Version | Previous Version | Text Only | Print | Product List | Glossary Off
Versions: 1 2 3 4 5 6 7 8 9 10 11 12 13 14 15 16 17 18 19 20 21 22 23 24 25 26 27 28 29 30 31 32 33 34 35 36 37 38 39 40 41 42 43 44 45 46 47 48 49 50

000
ASUS45 KCYS 071810
RWRWY

WYOMING REGIONAL WEATHER ROUNDUP
NATIONAL WEATHER SERVICE CHEYENNE WY
1100 AM MST SUN FEB 07 2016

NOTE:  "FAIR" INDICATES FEW OR NO CLOUDS BELOW 12,000 FEET
WITH NO SIGNIFICANT WEATHER AND/OR OBSTRUCTIONS TO VISIBILITY.

WYZ001-071900-
YELLOWSTONE NATIONAL PARK

CITY           SKY/WX    TMP DP  RH WIND       PRES   REMARKS
LK YELLOWSTONE   N/A     23  12  62 CALM      30.46R
6HR MIN TEMP:   0; 6HR MAX TEMP:  23;

W YELLOWSTONE  NOT AVBL

$$
WYZ002>013-054>058-071-098>099-071900-
NORTHERN WYOMING

CITY           SKY/WX    TMP DP  RH WIND       PRES   REMARKS
JACKSON        SUNNY     30  27  86 CALM      30.48R
CODY           FAIR      34  16  47 N17G23    30.41R WCI  23
GREYBULL       FAIR      38  11  32 NW28G35   30.41R WCI  26
6HR MIN TEMP:  33; 6HR MAX TEMP:  38;

WORLAND        FAIR      35  15  44 NW12      30.43R WCI  27
6HR MIN TEMP:  21; 6HR MAX TEMP:  35;

SHERIDAN       CLOUDY    34  13  41 NW32G40   30.41R WCI  20
6HR MIN TEMP:  32; 6HR MAX TEMP:  34;

BUFFALO        CLOUDY    32  12  43 NW30G48   30.35R WCI  18
6HR MIN TEMP:  30; 6HR MAX TEMP:  32; 6HR PCP: TRACE;

GILLETTE       FAIR      32  12  43 NW32G40   30.33R WCI  17
6HR MIN TEMP:  29; 6HR MAX TEMP:  32;

HULETT         FAIR      32  10  40 NW20G39   30.28R WCI  20
NEWCASTLE      FAIR      32   5  32 NW35G49   30.28R WCI  17

$$
WYZ014>020-022>026-101>103-071900-
CENTRAL WYOMING

CITY           SKY/WX    TMP DP  RH WIND       PRES   REMARKS
BIG PINEY      FAIR      34  19  54 N17G28    30.42S WCI  23
6HR MIN TEMP:  24; 6HR MAX TEMP:  34;

PINEDALE       FAIR      30  19  64 NW16      30.42R WCI  19
DUBOIS         FAIR      32  10  40 NW22G35   30.36R WCI  19
LANDER         FAIR      30  14  51 SE3       30.40R
6HR MIN TEMP:  15; 6HR MAX TEMP:  30;

RIVERTON       FAIR      29  13  51 E6        30.41R WCI  23
6HR MIN TEMP:  22; 6HR MAX TEMP:  29;

CASPER         CLOUDY    22  14  71 SE3       30.40R
6HR MIN TEMP:   8; 6HR MAX TEMP:  22;

DOUGLAS        CLOUDY    30  14  51 NW18G28     N/A  WCI  18
6HR MIN TEMP:  27; 6HR MAX TEMP:  30; 6HR PCP: TRACE;


$$
WYZ021-027>030-104>119-071900-
SOUTHERN WYOMING

CITY           SKY/WX    TMP DP  RH WIND       PRES   REMARKS
EVANSTON       FAIR      28  18  66 SW15      30.52R WCI  16
6HR MIN TEMP:  19; 6HR MAX TEMP:  28;

FORT BRIDGER   CLEAR     32  23  69 W23       30.53R WCI  19
ROCK SPRINGS   FAIR      30  20  66 W33       30.43R WCI  14
6HR MIN TEMP:  23; 6HR MAX TEMP:  30;

DIXON          MOCLDY    25  16  69 N7        30.50R WCI  17
RAWLINS        FAIR      26  19  74 W18       30.40R WCI  13
6HR MIN TEMP:  20; 6HR MAX TEMP:  26;

SARATOGA       FAIR      28  23  80 W23G30    30.40R WCI  14
LARAMIE        FAIR      27  20  75 NW25G32   30.29R WCI  12
6HR MIN TEMP:  23; 6HR MAX TEMP:  28;

CHEYENNE       CLOUDY    29  17  61 N29G41    30.29R WCI  14
6HR MIN TEMP:  22; 6HR MAX TEMP:  32;

TORRINGTON     CLOUDY    34  14  43 NW28G40   30.31R WCI  21
6HR MIN TEMP:  29; 6HR MAX TEMP:  34; 6HR PCP: TRACE;

PINE BLUFFS    LGT SNOW  28  23  80 NW24G32   30.33S WCI  14

$$



USA.gov is the U.S. government's official web portal to all federal, state and local government web resources and services.